• In Czech Republic
  • List of Countries
  • For 7 days
  • Water Temperature
  • Satellite Maps
  • Weather Map
  • Weather Widgets
  • user-avatar
    Login

    Hourly Weather Pontypool

    Today, 15 October, Monday

    Time Temperature Precipitation Wind Pressure Humidity
    00:00 +7°C° 0 mm 5 mps 743 mmHg 82%
    01:00 +7°C° 0.2 mm 5 mps 742 mmHg 83%
    02:00 +7°C° 0.2 mm 5 mps 742 mmHg 84%
    03:00 +7°C° 0.2 mm 6 mps 742 mmHg 85%
    04:00 +8°C° 0.4 mm 6 mps 742 mmHg 86%
    05:00 +8°C° 0.4 mm 6 mps 742 mmHg 87%
    06:00 +8°C° 0.4 mm 6 mps 742 mmHg 89%
    07:00 +8°C° 0.5 mm 6 mps 743 mmHg 89%
    08:00 +8°C° 0.5 mm 7 mps 743 mmHg 90%
    09:00 +8°C° 0.5 mm 7 mps 743 mmHg 91%
    10:00 +8°C° 0.5 mm 7 mps 743 mmHg 91%
    11:00 +8°C° 0.5 mm 6 mps 744 mmHg 91%
    12:00 +8°C° 0.5 mm 6 mps 744 mmHg 92%
    13:00 +9°C° 0.1 mm 6 mps 744 mmHg 92%
    14:00 +9°C° 0.1 mm 6 mps 744 mmHg 92%
    15:00 +9°C° 0.1 mm 6 mps 744 mmHg 92%
    16:00 +9°C° 0.1 mm 5 mps 744 mmHg 93%
    17:00 +9°C° 0.1 mm 5 mps 744 mmHg 94%
    18:00 +10°C° 0.1 mm 4 mps 745 mmHg 94%
    19:00 +10°C° 0 mm 4 mps 745 mmHg 95%
    20:00 +10°C° 0 mm 3 mps 745 mmHg 96%
    21:00 +10°C° 0 mm 3 mps 745 mmHg 97%
    22:00 +11°C° 0 mm 3 mps 745 mmHg 97%
    23:00 +11°C° 0 mm 3 mps 745 mmHg 97%

    Tomorrow, 16 October, Tuesday

    Time Temperature Precipitation Wind Pressure Humidity
    00:00 +11°C° 0 mm 3 mps 745 mmHg 98%
    01:00 +11°C° 0 mm 3 mps 745 mmHg 97%
    02:00 +11°C° 0 mm 3 mps 745 mmHg 97%
    03:00 +12°C° 0 mm 2 mps 745 mmHg 97%
    04:00 +12°C° 0 mm 2 mps 745 mmHg 97%
    05:00 +12°C° 0 mm 2 mps 745 mmHg 97%
    06:00 +12°C° 0 mm 2 mps 745 mmHg 96%
    07:00 +13°C° 0 mm 2 mps 745 mmHg 94%
    08:00 +13°C° 0 mm 3 mps 745 mmHg 91%
    09:00 +14°C° 0 mm 3 mps 745 mmHg 89%
    10:00 +15°C° 0 mm 4 mps 745 mmHg 86%
    11:00 +17°C° 0 mm 4 mps 746 mmHg 84%
    12:00 +17°C° 0 mm 4 mps 746 mmHg 81%
    13:00 +17°C° 0 mm 4 mps 745 mmHg 83%
    14:00 +15°C° 0 mm 4 mps 745 mmHg 85%
    15:00 +15°C° 0 mm 4 mps 745 mmHg 87%
    16:00 +14°C° 0 mm 4 mps 745 mmHg 89%
    17:00 +13°C° 0 mm 3 mps 746 mmHg 92%
    18:00 +12°C° 0 mm 3 mps 746 mmHg 94%
    19:00 +12°C° 0 mm 3 mps 746 mmHg 94%
    20:00 +11°C° 0 mm 3 mps 746 mmHg 93%
    21:00 +11°C° 0 mm 3 mps 746 mmHg 93%
    22:00 +11°C° 0.1 mm 3 mps 746 mmHg 93%
    23:00 +11°C° 0.1 mm 3 mps 746 mmHg 94%

    Day after tomorrow, 17 October, Wednesday

    Time Temperature Precipitation Wind Pressure Humidity
    00:00 +11°C° 0.1 mm 3 mps 746 mmHg 94%
    01:00 +11°C° 0.1 mm 3 mps 747 mmHg 94%
    02:00 +12°C° 0.1 mm 2 mps 747 mmHg 94%
    03:00 +12°C° 0.1 mm 2 mps 747 mmHg 94%
    04:00 +12°C° 0.1 mm 2 mps 747 mmHg 94%
    05:00 +12°C° 0.1 mm 1 mps 747 mmHg 94%
    06:00 +11°C° 0.1 mm 1 mps 747 mmHg 95%
    07:00 +12°C° 0.1 mm 1 mps 747 mmHg 93%
    08:00 +12°C° 0.1 mm 1 mps 748 mmHg 92%
    09:00 +13°C° 0.1 mm 1 mps 748 mmHg 90%
    10:00 +13°C° 0.1 mm 1 mps 748 mmHg 87%
    11:00 +14°C° 0.1 mm 2 mps 749 mmHg 85%
    12:00 +14°C° 0.1 mm 2 mps 749 mmHg 82%
    13:00 +14°C° 0.2 mm 2 mps 749 mmHg 83%
    14:00 +14°C° 0.2 mm 2 mps 749 mmHg 84%
    15:00 +14°C° 0.2 mm 2 mps 749 mmHg 85%
    16:00 +12°C° 0.1 mm 3 mps 750 mmHg 86%
    17:00 +12°C° 0.1 mm 3 mps 750 mmHg 88%
    18:00 +11°C° 0.1 mm 4 mps 751 mmHg 90%
    19:00 +11°C° 0 mm 4 mps 751 mmHg 90%
    20:00 +9°C° 0 mm 5 mps 752 mmHg 89%
    21:00 +9°C° 0 mm 5 mps 752 mmHg 89%
    22:00 +8°C° 0 mm 5 mps 753 mmHg 88%
    23:00 +8°C° 0 mm 5 mps 753 mmHg 87%

    18 October, Thursday

    Time Temperature Precipitation Wind Pressure Humidity
    00:00 +8°C° 0 mm 5 mps 753 mmHg 86%
    01:00 +8°C° 0 mm 5 mps 753 mmHg 87%
    02:00 +8°C° 0 mm 5 mps 753 mmHg 87%
    03:00 +8°C° 0 mm 5 mps 753 mmHg 88%
    04:00 +7°C° 0 mm 5 mps 754 mmHg 90%
    05:00 +7°C° 0 mm 4 mps 754 mmHg 91%
    06:00 +7°C° 0 mm 4 mps 754 mmHg 93%
    07:00 +8°C° 0 mm 5 mps 754 mmHg 90%
    08:00 +8°C° 0 mm 5 mps 755 mmHg 88%
    09:00 +9°C° 0 mm 5 mps 755 mmHg 85%
    10:00 +10°C° 0 mm 5 mps 755 mmHg 81%
    11:00 +12°C° 0 mm 5 mps 755 mmHg 77%
    12:00 +13°C° 0 mm 4 mps 755 mmHg 74%
    13:00 +13°C° 0 mm 4 mps 755 mmHg 73%
    14:00 +13°C° 0 mm 4 mps 755 mmHg 72%
    15:00 +13°C° 0 mm 4 mps 754 mmHg 72%
    16:00 +12°C° 0 mm 3 mps 755 mmHg 77%
    17:00 +10°C° 0 mm 3 mps 755 mmHg 82%
    18:00 +9°C° 0 mm 3 mps 755 mmHg 87%
    19:00 +9°C° 0 mm 3 mps 755 mmHg 88%
    20:00 +8°C° 0 mm 3 mps 755 mmHg 89%
    21:00 +8°C° 0 mm 2 mps 755 mmHg 90%
    22:00 +8°C° 0 mm 2 mps 755 mmHg 91%
    23:00 +7°C° 0 mm 2 mps 755 mmHg 92%

    19 October, Friday

    Time Temperature Precipitation Wind Pressure Humidity
    00:00 +7°C° 0 mm 2 mps 755 mmHg 93%
    01:00 +7°C° 0 mm 2 mps 755 mmHg 93%
    02:00 +8°C° 0 mm 1 mps 755 mmHg 93%
    03:00 +8°C° 0 mm 1 mps 755 mmHg 94%
    04:00 +8°C° 0 mm 1 mps 755 mmHg 94%
    05:00 +7°C° 0 mm 1 mps 755 mmHg 93%
    06:00 +7°C° 0 mm 1 mps 755 mmHg 93%
    07:00 +8°C° 0 mm 1 mps 755 mmHg 90%
    08:00 +10°C° 0 mm 1 mps 755 mmHg 88%
    09:00 +11°C° 0 mm 1 mps 756 mmHg 85%
    10:00 +12°C° 0 mm 1 mps 756 mmHg 80%
    11:00 +13°C° 0 mm 1 mps 756 mmHg 75%
    12:00 +13°C° 0 mm 0 mps 756 mmHg 70%
    13:00 +14°C° 0 mm 1 mps 756 mmHg 70%
    14:00 +15°C° 0 mm 1 mps 755 mmHg 70%
    15:00 +15°C° 0 mm 1 mps 755 mmHg 69%
    16:00 +13°C° 0 mm 1 mps 756 mmHg 75%
    17:00 +12°C° 0 mm 1 mps 756 mmHg 81%
    18:00 +10°C° 0 mm 1 mps 756 mmHg 87%
    19:00 +10°C° 0 mm 1 mps 756 mmHg 87%
    20:00 +9°C° 0 mm 1 mps 756 mmHg 88%
    21:00 +9°C° 0 mm 1 mps 757 mmHg 88%
    22:00 +8°C° 0 mm 1 mps 757 mmHg 88%
    23:00 +8°C° 0 mm 1 mps 757 mmHg 87%

    20 October, Saturday

    Time Temperature Precipitation Wind Pressure Humidity
    00:00 +7°C° 0 mm 0 mps 757 mmHg 87%
    01:00 +7°C° 0 mm 0 mps 757 mmHg 87%
    02:00 +7°C° 0 mm 0 mps 757 mmHg 86%
    03:00 +7°C° 0 mm 0 mps 757 mmHg 86%
    04:00 +6°C° 0 mm 0 mps 757 mmHg 85%
    05:00 +6°C° 0 mm 0 mps 757 mmHg 85%
    06:00 +6°C° 0 mm 0 mps 757 mmHg 85%
    07:00 +7°C° 0 mm 0 mps 757 mmHg 81%
    08:00 +9°C° 0 mm 0 mps 758 mmHg 78%
    09:00 +10°C° 0 mm 0 mps 758 mmHg 75%
    10:00 +12°C° 0 mm 1 mps 758 mmHg 70%
    11:00 +14°C° 0 mm 1 mps 758 mmHg 66%
    12:00 +15°C° 0 mm 1 mps 758 mmHg 62%
    13:00 +15°C° 0 mm 1 mps 758 mmHg 63%
    14:00 +16°C° 0 mm 2 mps 758 mmHg 65%
    15:00 +16°C° 0 mm 2 mps 757 mmHg 67%
    16:00 +14°C° 0 mm 2 mps 757 mmHg 73%
    17:00 +13°C° 0 mm 1 mps 757 mmHg 79%
    18:00 +11°C° 0 mm 1 mps 757 mmHg 85%
    19:00 +11°C° 0 mm 1 mps 757 mmHg 86%
    20:00 +11°C° 0 mm 1 mps 757 mmHg 87%
    21:00 +10°C° 0 mm 1 mps 757 mmHg 88%
    22:00 +10°C° 0 mm 1 mps 757 mmHg 89%
    23:00 +10°C° 0 mm 1 mps 757 mmHg 89%
    Show more